Hourly Data Report for January 22, 2022

CHARLOTTETOWN A
PRINCE EDWARD ISLAND
Current Station Operator: NAVCAN

46°17'21.000" N
63°07'09.000" W
50.90 m
8300301
71706
YYG

Download Data

Hourly Data (January 2022)
Hourly Data Report for January 22, 2022
TIME
LST
Temp Definition
°C
Dew Point Definition
°C
Rel Hum Definition
%
Precip. Amount Definition
mm

Wind Dir Definition
10's deg

Wind Spd Definition
km/h
Visibility Definition
km
Stn Press Definition
kPa
Hmdx Definition


Wind Chill Definition


Weather Definition


00:00 -14.3 -20.2 62 LegendMM 26 10 24.1 102.74   -20 Snow Showers
01:00 -15.7 -20.4 67 LegendMM 26 10 24.1 102.74   -22 LegendNANA
02:00 -16.0 -19.9 73 LegendMM 27 9 24.1 102.78   -22 Mostly Cloudy
03:00 -16.6 -19.7 77 LegendMM 25 7 24.1 102.77   -22 LegendNANA
04:00 -17.5 -20.5 78 LegendMM 26 9 24.1 102.73   -24 LegendNANA
05:00 -17.2 -20.5 76 LegendMM 27 10 24.1 102.71   -24 Mainly Clear
06:00 -20.1 -22.2 84 LegendMM 32 8 24.1 102.71   -26 LegendNANA
07:00 -19.6 -21.6 85 LegendMM 31 6 24.1 102.68   -25 LegendNANA
08:00 -23.2 -25.8 80 LegendMM 34 7 24.1 102.66   -29 Mainly Clear
09:00 -18.3 -20.5 83 LegendMM 33 6 24.1 102.57   -23 LegendNANA
10:00 -16.0 -19.4 76 LegendMM 21 11 24.1 102.68   -23 LegendNANA
11:00 -13.9 -18.3 69 LegendMM 23 8 24.1 102.65   -19 Mainly Clear
12:00 -12.8 -17.5 68 LegendMM 26 7 24.1 102.45   -17 LegendNANA
13:00 -11.8 -16.9 66 LegendMM 31 4 24.1 102.26   -14 LegendNANA
14:00 -10.8 -15.6 68 LegendMM 0 1 24.1 102.22   -11 Mainly Clear
15:00 -10.6 -15.3 69 LegendMM 36 1 24.1 102.16   -11 LegendNANA
16:00 -10.6 -14.8 72 LegendMM 6 5 24.1 102.08   -14 LegendNANA
17:00 -12.2 -15.8 75 LegendMM 35 4 24.1 101.98   -15 Mostly Cloudy
18:00 -14.0 -16.8 80 LegendMM 36 5 24.1 101.96   -17 LegendNANA
19:00 -12.2 -15.1 79 LegendMM 5 7 24.1 101.85   -17 Snow
20:00 -10.9 -13.8 80 LegendMM 36 2 24.1 101.76   -12 Snow
21:00 -10.8 -13.1 83 LegendMM 1 8 24.1 101.51   -15 Snow
22:00 -9.3 -11.9 82 LegendMM 7 8 LegendMM 101.32   -14 Snow
23:00 -8.6 -11.5 80 LegendMM 8 6 24.1 101.20   -12 Snow

Notes on Data Quality.

Legend

  • E = Estimated
  • M = Missing
  • NA = Not Available*
  • [empty] = Indicates an unobserved value
Date modified: